TAI323 MPTO-MROC

Flight info

Callsign TAI323
Flight time N/A
Altitude 34000
Route SIMAN DCT PUDOS DCT ISEBA CUARE4I
Aircraft A320/M-SDE3FGHIRWY/LB1

Departure

Time 2026-05-04 21:36
Airport Tocumen International Airport (MPTO)

Arrival

Time N/A
Airport Juan Santamaría International Airport (MROC)
Time Latitude Longitude Altitude Speed Heading
2026-05-04 21:36 9.14470 -79.38606 3200 ft 225 kts 280°
2026-05-04 21:36 9.14646 -79.40270 3496 ft 249 kts 278°
2026-05-04 21:36 9.14823 -79.42096 3917 ft 270 kts 277°
2026-05-04 21:37 9.15012 -79.44012 4731 ft 277 kts 277°
2026-05-04 21:37 9.15213 -79.45970 5515 ft 282 kts 276°
2026-05-04 21:37 9.15409 -79.47930 6275 ft 286 kts 277°
2026-05-04 21:37 9.15642 -79.49951 7055 ft 290 kts 278°
2026-05-04 21:38 9.15891 -79.51998 7906 ft 294 kts 278°
2026-05-04 21:38 9.16145 -79.54069 8660 ft 299 kts 277°
2026-05-04 21:38 9.16400 -79.56165 9376 ft 303 kts 277°
2026-05-04 21:38 9.16659 -79.58298 10041 ft 308 kts 277°
2026-05-04 21:39 9.16928 -79.60518 10286 ft 329 kts 277°
2026-05-04 21:39 9.17211 -79.62894 10433 ft 350 kts 277°
2026-05-04 21:39 9.17504 -79.65383 10882 ft 360 kts 277°
2026-05-04 21:39 9.17800 -79.67914 11505 ft 365 kts 277°
2026-05-04 21:40 9.18099 -79.70477 12154 ft 368 kts 277°
2026-05-04 21:40 9.18402 -79.73062 12740 ft 372 kts 277°
2026-05-04 21:40 9.18710 -79.75668 13333 ft 375 kts 277°
2026-05-04 21:40 9.19022 -79.78304 13888 ft 378 kts 278°
2026-05-04 21:41 9.19337 -79.80958 14383 ft 382 kts 277°
2026-05-04 21:41 9.19652 -79.83641 14892 ft 385 kts 277°
2026-05-04 21:41 9.19971 -79.86347 15376 ft 389 kts 277°
2026-05-04 21:41 9.20296 -79.89074 15889 ft 392 kts 277°
2026-05-04 21:42 9.20623 -79.91815 16412 ft 394 kts 277°
2026-05-04 21:42 9.20951 -79.94580 16924 ft 397 kts 277°
2026-05-04 21:42 9.21278 -79.97365 17433 ft 399 kts 277°
2026-05-04 21:42 9.21608 -80.00169 17900 ft 403 kts 277°
2026-05-04 21:43 9.21937 -80.02959 18381 ft 406 kts 277°
2026-05-04 21:43 9.22272 -80.05816 18782 ft 410 kts 277°
2026-05-04 21:43 9.22609 -80.08718 19287 ft 410 kts 277°
2026-05-04 21:43 9.22938 -80.11554 19769 ft 411 kts 277°
2026-05-04 21:44 9.23274 -80.14458 20312 ft 411 kts 277°
2026-05-04 21:44 9.23606 -80.17306 20790 ft 412 kts 277°
2026-05-04 21:44 9.23944 -80.20191 21268 ft 413 kts 277°
2026-05-04 21:44 9.24286 -80.23079 21737 ft 414 kts 277°
2026-05-04 21:45 9.24630 -80.25973 22192 ft 415 kts 277°
2026-05-04 21:45 9.24973 -80.28888 22669 ft 417 kts 278°
2026-05-04 21:45 9.25313 -80.31808 23077 ft 419 kts 277°
2026-05-04 21:45 9.25652 -80.34742 23500 ft 419 kts 277°
2026-05-04 21:46 9.25990 -80.37676 23834 ft 421 kts 278°
2026-05-04 21:46 9.26332 -80.40622 24177 ft 422 kts 278°
2026-05-04 21:46 9.26680 -80.43591 24462 ft 425 kts 277°
2026-05-04 21:46 9.27023 -80.46532 24755 ft 428 kts 277°
2026-05-04 21:47 9.27375 -80.49571 25026 ft 430 kts 277°
2026-05-04 21:47 9.27724 -80.52587 25321 ft 432 kts 277°
2026-05-04 21:47 9.28071 -80.55574 25598 ft 435 kts 277°
2026-05-04 21:47 9.28423 -80.58617 25896 ft 436 kts 277°
2026-05-04 21:48 9.28780 -80.61678 26161 ft 439 kts 278°
2026-05-04 21:48 9.29140 -80.64755 26423 ft 441 kts 277°
2026-05-04 21:48 9.29500 -80.67838 26681 ft 443 kts 277°
2026-05-04 21:48 9.29858 -80.70942 26951 ft 445 kts 277°
2026-05-04 21:49 9.30216 -80.74060 27214 ft 446 kts 277°
2026-05-04 21:49 9.30574 -80.77191 27474 ft 448 kts 277°
2026-05-04 21:49 9.30812 -80.79268 27632 ft 450 kts 277°
2026-05-04 21:49 9.31174 -80.82424 27876 ft 452 kts 277°
2026-05-04 21:50 9.31539 -80.85599 28112 ft 454 kts 278°
2026-05-04 21:50 9.31906 -80.88776 28353 ft 456 kts 277°
2026-05-04 21:50 9.32276 -80.91967 28619 ft 457 kts 277°
2026-05-04 21:50 9.32645 -80.95175 28866 ft 458 kts 277°
2026-05-04 21:51 9.33014 -80.98389 29102 ft 460 kts 277°
2026-05-04 21:51 9.33384 -81.01611 29321 ft 461 kts 277°
2026-05-04 21:51 9.33757 -81.04841 29540 ft 463 kts 277°
2026-05-04 21:51 9.34128 -81.08082 29756 ft 464 kts 277°
2026-05-04 21:52 9.34493 -81.11290 29947 ft 466 kts 277°
2026-05-04 21:52 9.34990 -81.15657 30163 ft 468 kts 277°
2026-05-04 21:52 9.35244 -81.17870 30262 ft 469 kts 277°
2026-05-04 21:52 9.35622 -81.21153 30443 ft 470 kts 277°
2026-05-04 21:53 9.36000 -81.24438 30607 ft 471 kts 277°
2026-05-04 21:53 9.36376 -81.27735 30828 ft 470 kts 277°
2026-05-04 21:53 9.36743 -81.30976 31048 ft 470 kts 277°
2026-05-04 21:53 9.37116 -81.34267 31267 ft 470 kts 277°
2026-05-04 21:54 9.37487 -81.37550 31491 ft 469 kts 277°
2026-05-04 21:54 9.37857 -81.40825 31711 ft 469 kts 277°
2026-05-04 21:54 9.38229 -81.44119 31936 ft 469 kts 277°
2026-05-04 21:54 9.38598 -81.47397 32158 ft 469 kts 277°
2026-05-04 21:55 9.38974 -81.50691 32386 ft 469 kts 277°
2026-05-04 21:55 9.39348 -81.53978 32610 ft 469 kts 276°
2026-05-04 21:55 9.39718 -81.57250 32843 ft 468 kts 276°
2026-05-04 21:55 9.40084 -81.60520 33071 ft 468 kts 276°
2026-05-04 21:56 9.40452 -81.63797 33304 ft 468 kts 276°
2026-05-04 21:56 9.40820 -81.67071 33557 ft 467 kts 277°
2026-05-04 21:56 9.41182 -81.70291 33808 ft 466 kts 277°
2026-05-04 21:57 9.41924 -81.76855 33891 ft 472 kts 277°
2026-05-04 21:57 9.42684 -81.83508 33891 ft 479 kts 277°
2026-05-04 21:58 9.43444 -81.90238 33890 ft 482 kts 277°
2026-05-04 21:58 9.44198 -81.96995 33893 ft 483 kts 276°
2026-05-04 21:59 9.44953 -82.03757 33893 ft 483 kts 277°
2026-05-04 21:59 9.45705 -82.10511 33897 ft 483 kts 276°
2026-05-04 22:00 9.46133 -82.14384 33894 ft 483 kts 276°
2026-05-04 22:00 9.46576 -82.18373 33900 ft 483 kts 277°
2026-05-04 22:01 9.47317 -82.25091 33904 ft 484 kts 276°
2026-05-04 22:01 9.48067 -82.31864 33906 ft 484 kts 276°